Domov               UVHVVR             MKGP            O straneh              
ZDRAVSTVENO VARSTVO RASTLIN
  MREŽA AGROMET. POSTAJ
 ► PROGNOSTIČNA OBVESTILA
AGROMETEOROLOŠKI PODATKI -
ARSO
OBVLADOVANJE TVEGANJ ZARADI
NEUGODNIH VREMENSKIH RAZMER
  ► NARAVNE NESREČE
  ► SUŠA/MOČA
  ► NAMAKANJE
  ► ŽLED (gozdarstvo)
KARTOGRAFSKI PRIKAZI
SPLETNE POVEZAVE
PROJEKTI IN PUBLIKACIJE

AGROMETEOROLOŠKA MREŽA: VREMENSKE POSTAJE IN FENOLOŠKA OPAZOVANJA

Pregled podatkov za lokacijo Pradisiol, meteorološka postaja 861649

Pregled senzorjev na lokaciji

ID Ime Zadnja
vrednost
Datum
zadnje
spremembe
Tip
senzorja
4076 Omočenost lista (U) 0 U 25.2.2018 15:30 A730WET
4077 Padavine (mm) 0 mm 25.2.2018 15:30 Rain-O-Matic
4075 Relativna vlaga 2 m (% RH) 44,57 % RH 25.2.2018 15:30 50YA
4074 Temperatura 2 m (°C) -1,52 °C 25.2.2018 15:30 50YA

Pregled podatkov zadnjih 24 ur

Zap.
št.
Datum in čas Pradisiol
Omočenost
lista
Padavine Relativna
vlaga
2
m
Temperatura
2
m
1 25.2.2018 16:00
2 25.2.2018 15:30 0 0 44,6 -1,5
3 25.2.2018 15:00 0 0 44,5 -1,1
4 25.2.2018 14:30 0 0 43,8 -0,7
5 25.2.2018 14:00 0 0 44 -0,6
6 25.2.2018 13:30 0 0 42,9 -0,4
7 25.2.2018 13:00 0 0 41,4 0,5
8 25.2.2018 12:30 0 0 41,5 0,3
9 25.2.2018 12:00 0 0 42,2 -0,1
10 25.2.2018 11:30 0 0 42 -0,5
11 25.2.2018 11:00 0 0 41,8 -0,8
12 25.2.2018 10:30 0 0 41,5 -1,3
13 25.2.2018 10:00 0 0 41,6 -1,7
14 25.2.2018 09:30 0 0 43,4 -2,6
15 25.2.2018 09:00 0 0 43,9 -2,7
16 25.2.2018 08:30 0 0 44 -2,5
17 25.2.2018 08:00 0 0 43,9 -2,8
18 25.2.2018 07:30 0 0 42,3 -2,7
19 25.2.2018 07:00 0 0 41,8 -2,7
20 25.2.2018 06:30 0 0 42,3 -2,6
21 25.2.2018 06:00 0 0 40,9 -2,3
22 25.2.2018 05:30 0 0 38,3 -1,9
23 25.2.2018 05:00 0 0 37,2 -1,6
24 25.2.2018 04:30 0 0 38,4 -1,5
25 25.2.2018 04:00 0 0 40,2 -1
26 25.2.2018 03:30 0 0 41,2 -1
27 25.2.2018 03:00 0 0 42,4 -1,1
28 25.2.2018 02:30 0 0 44,2 -1
29 25.2.2018 02:00 0 0 46 -0,8
30 25.2.2018 01:30 0 0 48,2 -0,6
31 25.2.2018 01:00 0 0 48,9 -0,3
32 25.2.2018 00:30 0 0 49,1 0,1
33 25.2.2018 00:00 0 0 49,7 0,2
34 24.2.2018 23:30 0 0 49,2 0,4
35 24.2.2018 23:00 0 0 49 0,6
36 24.2.2018 22:30 0 0 48,9 0,8
37 24.2.2018 22:00 0 0 46,8 1,1
38 24.2.2018 21:30 0 0 44,3 1,5
39 24.2.2018 21:00 0 0 42,1 1,8
40 24.2.2018 20:30 0 0 39,9 2,2
41 24.2.2018 20:00 0 0 36,9 2,6
42 24.2.2018 19:30 0 0 35,3 2,9
43 24.2.2018 19:00 0 0 33,9 3,5
44 24.2.2018 18:30 0 0 33,2 4
45 24.2.2018 18:00 0 0 33,3 4,5
46 24.2.2018 17:30 0 0 36,8 4,9
47 24.2.2018 17:00 0 0 40,8 5,4
48 24.2.2018 16:30 0 0 43 5,9
© 2011 Ministrstvo za kmetijstvo, gozdarstvo in prehrano. Vse pravice pridržane.